Time,TemperatureF,DewpointF,PressureIn,WindDirection,WindDirectionDegrees,WindSpeedMPH,WindSpeedGustMPH,Humidity,HourlyPrecipIn,Conditions,Clouds,dailyrainin,SoftwareType,DateUTC
2013-04-14 00:12:00,60.4,38.4,29.77,ESE,112,0.0,-999.0,44,-99.99,,,0.00,Acu-Link.com,2013-04-14 04:12:00,
2013-04-14 00:27:00,60.1,37.5,29.77,ESE,112,0.0,-999.0,43,-99.99,,,0.00,Acu-Link.com,2013-04-14 04:27:00,
2013-04-14 00:43:00,59.7,37.8,29.77,SSE,157,0.0,-999.0,44,-99.99,,,0.00,Acu-Link.com,2013-04-14 04:43:00,
2013-04-14 00:58:00,59.4,38.1,29.78,ESE,112,0.0,-999.0,45,-99.99,,,0.00,Acu-Link.com,2013-04-14 04:58:00,
2013-04-14 01:13:00,59.2,37.3,29.78,East,90,2.2,-999.0,44,-99.99,,,0.00,Acu-Link.com,2013-04-14 05:13:00,
2013-04-14 01:28:00,59.0,37.1,29.78,SE,135,1.7,-999.0,44,-99.99,,,0.00,Acu-Link.com,2013-04-14 05:28:00,
2013-04-14 01:43:00,58.6,37.3,29.78,SSE,157,0.0,-999.0,45,-99.99,,,0.00,Acu-Link.com,2013-04-14 05:43:00,
2013-04-14 01:58:00,58.5,36.7,29.78,South,180,1.7,-999.0,44,-99.99,,,0.00,Acu-Link.com,2013-04-14 05:58:00,
2013-04-14 02:13:00,57.9,36.1,29.77,ESE,112,0.0,-999.0,44,-99.99,,,0.00,Acu-Link.com,2013-04-14 06:13:00,
2013-04-14 02:28:00,57.7,35.9,29.77,NNE,22,1.1,-999.0,44,-99.99,,,0.00,Acu-Link.com,2013-04-14 06:28:00,
2013-04-14 02:43:00,57.6,37.5,29.77,ESE,112,2.2,-999.0,47,-99.99,,,0.00,Acu-Link.com,2013-04-14 06:43:00,
2013-04-14 02:59:00,57.4,36.2,29.76,ENE,67,2.2,-999.0,45,-99.99,,,0.00,Acu-Link.com,2013-04-14 06:59:00,
2013-04-14 03:14:00,57.6,36.4,29.76,ESE,112,1.7,-999.0,45,-99.99,,,0.00,Acu-Link.com,2013-04-14 07:14:00,
2013-04-14 03:29:00,57.4,36.8,29.76,ESE,112,1.7,-999.0,46,-99.99,,,0.00,Acu-Link.com,2013-04-14 07:29:00,
2013-04-14 03:44:00,57.9,36.1,29.77,ESE,112,1.7,-999.0,44,-99.99,,,0.00,Acu-Link.com,2013-04-14 07:44:00,
2013-04-14 03:59:00,57.9,36.1,29.76,ESE,112,0.0,-999.0,44,-99.99,,,0.00,Acu-Link.com,2013-04-14 07:59:00,
2013-04-14 04:14:00,57.9,36.7,29.77,ESE,112,0.0,-999.0,45,-99.99,,,0.00,Acu-Link.com,2013-04-14 08:14:00,
2013-04-14 04:29:00,57.9,36.1,29.77,ESE,112,0.0,-999.0,44,-99.99,,,0.00,Acu-Link.com,2013-04-14 08:29:00,
2013-04-14 04:44:00,58.1,35.7,29.77,NE,45,1.7,-999.0,43,-99.99,,,0.00,Acu-Link.com,2013-04-14 08:44:00,
2013-04-14 04:59:00,58.3,35.9,29.78,South,180,1.7,-999.0,43,-99.99,,,0.00,Acu-Link.com,2013-04-14 08:59:00,
2013-04-14 05:15:00,58.3,35.9,29.77,South,180,0.0,-999.0,43,-99.99,,,0.00,Acu-Link.com,2013-04-14 09:15:00,
2013-04-14 05:30:00,58.5,35.5,29.77,ESE,112,2.2,-999.0,42,-99.99,,,0.00,Acu-Link.com,2013-04-14 09:30:00,
2013-04-14 05:45:00,58.3,35.9,29.77,South,180,1.1,-999.0,43,-99.99,,,0.00,Acu-Link.com,2013-04-14 09:45:00,
2013-04-14 06:00:00,57.9,36.1,29.77,ESE,112,2.7,-999.0,44,-99.99,,,0.00,Acu-Link.com,2013-04-14 10:00:00,
2013-04-14 06:15:00,57.6,37.0,29.78,SE,135,2.7,-999.0,46,-99.99,,,0.00,Acu-Link.com,2013-04-14 10:15:00,
2013-04-14 06:30:00,57.4,36.2,29.78,SSE,157,1.7,-999.0,45,-99.99,,,0.00,Acu-Link.com,2013-04-14 10:30:00,
2013-04-14 06:45:00,57.4,35.7,29.80,East,90,2.7,-999.0,44,-99.99,,,0.00,Acu-Link.com,2013-04-14 10:45:00,
2013-04-14 07:00:00,57.4,35.7,29.80,ESE,112,0.0,-999.0,44,-99.99,,,0.00,Acu-Link.com,2013-04-14 11:00:00,
2013-04-14 07:15:00,57.4,35.7,29.79,ENE,67,3.7,-999.0,44,-99.99,,,0.00,Acu-Link.com,2013-04-14 11:15:00,
2013-04-14 07:30:00,57.6,35.9,29.80,NE,45,1.7,-999.0,44,-99.99,,,0.00,Acu-Link.com,2013-04-14 11:30:00,
2013-04-14 07:46:00,57.9,36.1,29.81,East,90,2.2,-999.0,44,-99.99,,,0.00,Acu-Link.com,2013-04-14 11:46:00,
2013-04-14 08:01:00,58.6,36.2,29.82,NE,45,1.7,-999.0,43,-99.99,,,0.00,Acu-Link.com,2013-04-14 12:01:00,
2013-04-14 09:01:00,61.0,38.3,29.83,South,180,1.7,-999.0,43,-99.99,,,0.00,Acu-Link.com,2013-04-14 13:01:00,
2013-04-14 09:16:00,61.9,37.3,29.83,North,0,0.0,-999.0,40,-99.99,,,0.00,Acu-Link.com,2013-04-14 13:16:00,
2013-04-14 09:31:00,62.6,37.9,29.83,SSW,202,1.1,-999.0,40,-99.99,,,0.00,Acu-Link.com,2013-04-14 13:31:00,
2013-04-14 09:46:00,63.5,37.4,29.83,West,270,2.2,-999.0,38,-99.99,,,0.00,Acu-Link.com,2013-04-14 13:46:00,
2013-04-14 10:02:00,64.8,37.9,29.82,South,180,2.2,-999.0,37,-99.99,,,0.00,Acu-Link.com,2013-04-14 14:02:00,
2013-04-14 10:17:00,65.8,38.1,29.81,NNW,337,1.1,-999.0,36,-99.99,,,0.00,Acu-Link.com,2013-04-14 14:17:00,
2013-04-14 10:32:00,66.7,39.6,29.81,SW,225,3.7,-999.0,37,-99.99,,,0.00,Acu-Link.com,2013-04-14 14:32:00,
2013-04-14 10:47:00,66.9,39.8,29.82,SW,225,3.7,-999.0,37,-99.99,,,0.00,Acu-Link.com,2013-04-14 14:47:00,
2013-04-14 11:02:00,67.6,40.4,29.83,SSW,202,1.7,-999.0,37,-99.99,,,0.00,Acu-Link.com,2013-04-14 15:02:00,
2013-04-14 11:17:00,68.5,41.2,29.83,West,270,1.7,-999.0,37,-99.99,,,0.00,Acu-Link.com,2013-04-14 15:17:00,
2013-04-14 11:32:00,68.7,42.1,29.84,SSW,202,1.1,-999.0,38,-99.99,,,0.00,Acu-Link.com,2013-04-14 15:32:00,
2013-04-14 11:47:00,68.7,42.7,29.83,SW,225,2.7,-999.0,39,-99.99,,,0.00,Acu-Link.com,2013-04-14 15:47:00,
2013-04-14 12:02:00,69.4,43.4,29.83,SW,225,2.2,-999.0,39,-99.99,,,0.00,Acu-Link.com,2013-04-14 16:02:00,
2013-04-14 12:18:00,69.6,44.2,29.84,SW,225,2.2,-999.0,40,-99.99,,,0.00,Acu-Link.com,2013-04-14 16:18:00,
2013-04-14 12:33:00,70.0,45.2,29.84,WSW,247,1.1,-999.0,41,-99.99,,,0.00,Acu-Link.com,2013-04-14 16:33:00,
2013-04-14 12:48:00,70.5,45.7,29.83,WNW,292,2.2,-999.0,41,-99.99,,,0.00,Acu-Link.com,2013-04-14 16:48:00,
2013-04-14 13:03:00,70.0,44.6,29.83,WNW,292,2.2,-999.0,40,-99.99,,,0.00,Acu-Link.com,2013-04-14 17:03:00,
2013-04-14 13:18:00,69.3,45.8,29.83,WNW,292,0.0,-999.0,43,-99.99,,,0.00,Acu-Link.com,2013-04-14 17:18:00,
2013-04-14 13:33:00,69.6,45.5,29.82,North,0,2.2,-999.0,42,-99.99,,,0.00,Acu-Link.com,2013-04-14 17:33:00,
2013-04-14 13:48:00,68.9,46.7,29.82,WSW,247,0.0,-999.0,45,-99.99,,,0.00,Acu-Link.com,2013-04-14 17:48:00,
2013-04-14 14:03:00,68.4,46.2,29.81,West,270,3.2,-999.0,45,-99.99,,,0.00,Acu-Link.com,2013-04-14 18:03:00,
2013-04-14 14:18:00,68.5,46.9,29.81,WSW,247,1.1,-999.0,46,-99.99,,,0.00,Acu-Link.com,2013-04-14 18:18:00,
2013-04-14 14:34:00,69.1,47.4,29.81,West,270,0.0,-999.0,46,-99.99,,,0.00,Acu-Link.com,2013-04-14 18:34:00,
2013-04-14 14:49:00,68.9,47.8,29.81,SW,225,0.0,-999.0,47,-99.99,,,0.00,Acu-Link.com,2013-04-14 18:49:00,
2013-04-14 15:04:00,68.5,48.0,29.81,SW,225,2.7,-999.0,48,-99.99,,,0.00,Acu-Link.com,2013-04-14 19:04:00,
2013-04-14 15:19:00,68.4,49.0,29.82,WSW,247,0.0,-999.0,50,-99.99,,,0.00,Acu-Link.com,2013-04-14 19:19:00,
2013-04-14 15:34:00,68.2,49.4,29.81,West,270,1.7,-999.0,51,-99.99,,,0.00,Acu-Link.com,2013-04-14 19:34:00,
2013-04-14 15:49:00,68.5,49.6,29.80,ESE,112,1.7,-999.0,51,-99.99,,,0.00,Acu-Link.com,2013-04-14 19:49:00,
2013-04-14 16:04:00,68.2,49.4,29.80,NNE,22,2.7,-999.0,51,-99.99,,,0.00,Acu-Link.com,2013-04-14 20:04:00,
2013-04-14 16:19:00,68.4,50.1,29.79,SE,135,1.1,-999.0,52,-99.99,,,0.00,Acu-Link.com,2013-04-14 20:19:00,
2013-04-14 16:34:00,67.8,50.0,29.79,NW,315,0.0,-999.0,53,-99.99,,,0.00,Acu-Link.com,2013-04-14 20:34:00,
2013-04-14 16:49:00,67.5,50.3,29.80,West,270,0.0,-999.0,54,-99.99,,,0.00,Acu-Link.com,2013-04-14 20:49:00,
2013-04-14 17:05:00,67.5,50.3,29.79,WSW,247,0.0,-999.0,54,-99.99,,,0.00,Acu-Link.com,2013-04-14 21:05:00,
2013-04-14 17:20:00,67.1,50.9,29.79,WSW,247,0.0,-999.0,56,-99.99,,,0.00,Acu-Link.com,2013-04-14 21:20:00,
2013-04-14 17:35:00,67.1,50.9,29.78,East,90,0.0,-999.0,56,-99.99,,,0.00,Acu-Link.com,2013-04-14 21:35:00,
2013-04-14 17:50:00,64.6,53.0,29.79,West,270,3.2,-999.0,66,-99.99,,,0.00,Acu-Link.com,2013-04-14 21:50:00,
2013-04-14 18:05:00,64.0,53.2,29.79,SSE,157,1.1,-999.0,68,-99.99,,,0.00,Acu-Link.com,2013-04-14 22:05:00,
2013-04-14 18:20:00,63.1,52.8,29.78,WSW,247,1.7,-999.0,69,-99.99,,,0.00,Acu-Link.com,2013-04-14 22:20:00,
2013-04-14 18:35:00,61.9,52.0,29.78,WSW,247,1.7,-999.0,70,-99.99,,,0.00,Acu-Link.com,2013-04-14 22:35:00,
2013-04-14 18:50:00,61.0,52.7,29.77,WSW,247,0.0,-999.0,74,-99.99,,,0.00,Acu-Link.com,2013-04-14 22:50:00,
2013-04-14 19:05:00,60.4,52.4,29.76,SW,225,0.0,-999.0,75,-99.99,,,0.00,Acu-Link.com,2013-04-14 23:05:00,
2013-04-14 19:21:00,60.1,52.5,29.75,SE,135,0.0,-999.0,76,-99.99,,,0.00,Acu-Link.com,2013-04-14 23:21:00,
2013-04-14 19:36:00,60.3,52.3,29.74,SSW,202,0.0,-999.0,75,-99.99,,,0.00,Acu-Link.com,2013-04-14 23:36:00,
2013-04-14 20:36:00,59.5,51.6,29.73,SSW,202,1.7,-999.0,75,-99.99,,,0.00,Acu-Link.com,2013-04-15 00:36:00,
2013-04-14 20:51:00,59.5,51.9,29.74,East,90,0.0,-999.0,76,-99.99,,,0.00,Acu-Link.com,2013-04-15 00:51:00,
2013-04-14 21:06:00,59.5,51.2,29.75,East,90,1.1,-999.0,74,-99.99,,,0.00,Acu-Link.com,2013-04-15 01:06:00,
2013-04-14 21:21:00,59.5,51.2,29.75,NW,315,0.0,-999.0,74,-99.99,,,0.00,Acu-Link.com,2013-04-15 01:21:00,
2013-04-14 21:37:00,59.5,51.6,29.74,West,270,0.0,-999.0,75,-99.99,,,0.00,Acu-Link.com,2013-04-15 01:37:00,
2013-04-14 21:52:00,58.6,52.8,29.75,West,270,0.0,-999.0,81,-99.99,,,0.00,Acu-Link.com,2013-04-15 01:52:00,
2013-04-14 22:07:00,57.9,52.4,29.74,South,180,1.1,-999.0,82,-99.99,,,0.00,Acu-Link.com,2013-04-15 02:07:00,
2013-04-14 22:22:00,58.3,53.2,29.74,WSW,247,1.1,-999.0,83,-99.99,,,0.00,Acu-Link.com,2013-04-15 02:22:00,
2013-04-14 22:37:00,59.0,52.1,29.74,SSE,157,0.0,-999.0,78,-99.99,,,0.00,Acu-Link.com,2013-04-15 02:37:00,
2013-04-14 22:52:00,57.7,53.5,29.75,WSW,247,0.0,-999.0,86,-99.99,,,0.01,Acu-Link.com,2013-04-15 02:52:00,
2013-04-14 23:07:00,56.8,53.3,29.75,NNW,337,0.0,-999.0,88,-99.99,,,0.01,Acu-Link.com,2013-04-15 03:07:00,
2013-04-14 23:22:00,56.3,52.8,29.74,ESE,112,0.0,-999.0,88,-99.99,,,0.02,Acu-Link.com,2013-04-15 03:22:00,
2013-04-14 23:37:00,55.4,52.2,29.75,WSW,247,1.7,-999.0,89,-99.99,,,0.03,Acu-Link.com,2013-04-15 03:37:00,
2013-04-14 23:53:00,55.0,52.4,29.75,South,180,0.0,-999.0,91,-99.99,,,0.04,Acu-Link.com,2013-04-15 03:53:00,